Regional Weather Roundup
Issued by NWS

Home | Current Version | Previous Version | Graphics & Text | Print | Product List | Glossary On
Versions: 1 2 3 4 5 6 7 8 9 10 11 12 13 14 15 16 17 18 19 20 21 22 23 24 25 26 27 28 29 30 31 32 33 34 35 36 37 38 39 40 41 42 43 44 45 46 47 48 49 50
134
ASUS45 KABQ 042010
RWRNM
NEW MEXICO REGIONAL WEATHER ROUNDUP
NATIONAL WEATHER SERVICE ALBUQUERQUE NM
200 PM MDT WED MAY 04 2016

NOTE: "FAIR" MEANS FEW OR NO CLOUDS BELOW 12,000 FEET AGL WITH NO
       SIGNIFICANT WEATHER OR OBSTRUCTIONS TO VISION.

      THIS PRODUCT IS RELEASED AS TWO VERSIONS.  ONE VERSION NEAR
      THE TOP OF THE HOUR CONTAINING PRELIMINARY DATA FROM ALBUQUERQUE
      AND OTHER STATIONS.  A FINAL VERSION WITH ADDITIONAL DATA IS
      ISSUED ABOUT 10 MINUTES AFTER THE HOUR.

NMZ501-503-504-510>518-042100-
NORTHWEST PLATEAU/NORTHCENTRAL MOUNTAINS

CITY           SKY/WX    TMP DP  RH WIND       PRES   REMARKS
FARMINGTON     FAIR      75  21  13 SW12      30.22F
LOS ALAMOS     FAIR     N/A N/A N/A S7        30.34F
SANTA FE       FAIR      70  19  14 VRB3      30.30F
TAOS           FAIR      66  21  18 SW7       30.33F
ANGEL FIRE     FAIR      61  23  23 S5G21     30.37F

$$
NMZ402-403-502-505>509-042100-
WESTCENTRAL MOUNTAINS/SOUTHWEST MOUNTAINS

CITY           SKY/WX    TMP DP  RH WIND       PRES   REMARKS
GALLUP         PTSUNNY   74  28  18 SW6G16    30.26F
GRANTS         FAIR      70  27  20 SE15G24   30.31F
SILVER CITY      N/A     73  27  17 SE8G22    30.25F

$$
NMZ407-409-411-412-042100-
SOUTHERN DESERTS

CITY           SKY/WX    TMP DP  RH WIND       PRES   REMARKS
LORDSBURG      FAIR      81  30  16 E17G30    30.15F
DEMING         FAIR      81  29  15 VRB7G18   30.18F
LAS CRUCES     FAIR      79  23  12 SE6       30.21F
HOLLOMAN AFB   FAIR      79  25  13 S7        30.18F
ALAMOGORDO     FAIR      77  27  15 W5        30.20F
T OR C         FAIR      78  26  14 E9        30.21F

$$
NMZ519>523-042100-
CENTRAL VALLEYS/CENTRAL HIGHLANDS

CITY           SKY/WX    TMP DP  RH WIND       PRES   REMARKS
ALBUQUERQUE    FAIR      75  27  17 W6        30.26F
DOUBLE EAGLE   MOSUNNY   73  27  17 SW6       30.29F
MORIARTY ARPT  FAIR      72  18  12 S5        30.31F
CLINES CORNERS FAIR      68  19  15 SW9G20    30.33F
BELEN          FAIR      76  20  12 SW7       30.25F
SOCORRO        FAIR      76  17  10 CALM      30.23F

$$
NMZ524>526-539-540-042100-
SOUTHCENTRAL MOUNTAINS

CITY           SKY/WX    TMP DP  RH WIND       PRES   REMARKS
RUIDOSO        FAIR      66  14  13 W6        30.35F

$$
NMZ527>531-042100-
NORTHEAST HIGHLANDS/NORTHEAST PLAINS

CITY           SKY/WX    TMP DP  RH WIND       PRES   REMARKS
LAS VEGAS      FAIR      67  22  18 S10       30.32F
RATON          FAIR      71  25  17 VRB6G16   30.26F
CLAYTON        FAIR      74  36  25 E8        30.22F

$$
NMZ532>537-042100-
EASTCENTRAL PLAINS

CITY           SKY/WX    TMP DP  RH WIND       PRES   REMARKS
TUCUMCARI      FAIR      80  26  13 VRB3      30.18F
CANNON AFB     FAIR      77  29  17 NE8       30.21F
CLOVIS AIRPORT FAIR      75  32  20 NE7       30.22F

$$
NMZ028-029-538-042100-
SOUTHEAST PLAINS

CITY           SKY/WX    TMP DP  RH WIND       PRES   REMARKS
ROSWELL        FAIR      79  26  14 S9        30.20F
ARTESIA        FAIR      77  30  18 CALM      30.20F
CARLSBAD       FAIR      80  30  16 NE8       30.18F
HOBBS          SUNNY     81  25  12 N5        30.20F


$$




USA.gov is the U.S. government's official web portal to all federal, state and local government web resources and services.